Regional Weather Roundup
Issued by NWS Cleveland, OH

Home | Current Version | Previous Version | Graphics & Text | Print | Product List | Glossary On
Versions: 1 2 3 4 5 6 7 8 9 10 11 12 13 14 15 16 17 18 19 20 21 22 23 24 25 26 27 28 29 30 31 32 33 34 35 36 37 38 39 40 41 42 43 44 45 46 47 48 49 50
000
ASUS41 KCLE 290912
RWRCLE
OHIO REGIONAL WEATHER ROUNDUP
NATIONAL WEATHER SERVICE WILMINGTON, OH
500 AM EDT MON MAY 29 2017

NOTE: "FAIR" INDICATES FEW OR NO CLOUDS BELOW 12,000 FEET WITH NO
SIGNIFICANT WEATHER AND/OR OBSTRUCTIONS TO VISIBILITY.

OHZ001>008-015>018-024>027-034-035-043-044-291000-
   NORTHWEST OHIO

CITY           SKY/WX    TMP DP  RH WIND       PRES   REMARKS
DEFIANCE       FAIR      55  54  96 SW5       29.80R
FINDLAY        FAIR      59  55  87 SW8       29.80R
TOLEDO EXPRESS FAIR      58  57  97 SW8       29.77R
TOLEDO EXEC    FAIR      60  58  92 SW7       29.78R
LIMA           FAIR      60  60 100 SW8       29.82R
$$

OHZ009>014-019>023-028>033-038-089-291000-
   NORTHEAST OHIO

CITY           SKY/WX    TMP DP  RH WIND       PRES   REMARKS
CLE-HOPKINS    FAIR      62  59  90 SW8       29.78S
CLE-LAKEFRONT  MOCLDY    62  59  90 SW13      29.75S
CUY CO. ARPT   NOT AVBL
LORAIN-ELYRIA  FAIR      59  54  83 W8        29.78R
ASHTABULA      CLOUDY    61  60  97 SW8       29.74F
AKRON-CANTON   FAIR      60  56  86 SW7       29.79S
WOOSTER        FAIR      58  57  97 SW7       29.80S
MANSFIELD      FAIR      58  56  93 SW7       29.81R
YOUNGSTOWN     CLOUDY    60  58  92 S7        29.78S
$$

OHZ042-051>053-060>062-070>072-077>081-291000-
  SOUTHWEST OHIO

CITY           SKY/WX    TMP DP  RH WIND       PRES   REMARKS
CINC-COVINGTON CLOUDY    60  60 100 SW6       29.87R FOG
CINC-LUNKEN    FAIR      57  57 100 SW5       29.88R FOG
HAMILTON       FOG       58  58 100 CALM      29.87R VSB 1/4
DAYTON         FAIR      59  58  96 W8        29.85S
WRIGHT-PAT AFB PTCLDY    60  60 100 S3        29.85R
DAYTON GENERAL FOG       59  58  96 S5        29.85S VSB 3/4
WILMINGTON     CLOUDY    61  61 100 SW7       29.86R FOG
$$

OHZ036-037-039>041-045>050-054>059-063>069-073>076-082>088-291000-
  CENTRAL AND SOUTHEAST OHIO

CITY           SKY/WX    TMP DP  RH WIND       PRES   REMARKS
COLUMBUS       FAIR      62  62 100 SW5       29.83R
OSU AIRPORT    FAIR      61  61 100 SW6       29.83R
BOLTON FIELD   FAIR      60  60  98 W6        29.84S
RICKENBACK AFB FAIR      60  60 100 SW5       29.83S
NEWARK         FAIR      61  58  90 SW5       29.83R
MARION         FAIR      59  56  89 SW6       29.82S
LANCASTER      FAIR      64  61  90 W6        29.84S
ZANESVILLE     FAIR      62  59  90 SW3       29.82S
NEW PHILLY     MOCLDY    60  59  96 S3        29.81S
$$




USA.gov is the U.S. government's official web portal to all federal, state and local government web resources and services.